Temperature
20 18 18 19 19 20 20 19 19 19 20 19 18 18 18 18 18 17 17 17 18 18 18 18 18 18 18 17 17 17 16 16 16 15 15 15 15 15 14 14 14 14 14 14
19 19 20 20 20 20 19 19 19 19 19 19 18 18 18 17 17 17 17 17 18 18 17 18 18 18 17 17 17 16 16 16 15 15 15 14 14 14 14 14 14 13 13 13
21 21 21 21 20 20 20 19 20 19 19 18 19 18 18 18 17 18 18 18 18 18 18 18 18 17 17 17 16 16 16 15 15 15 14 14 14 14 14 13 13 13 13 13
20 20 21 21 21 21 20 20 20 20 18 17 18 17 18 17 17 17 17 17 18 18 18 18 17 17 17 16 16 16 15 15 15 14 14 14 14 13 13 13 13 13 13 12
21 21 21 21 21 21 21 20 19 19 18 17 17 17 17 17 17 17 17 17 17 17 17 17 17 17 16 16 16 15 15 15 14 14 14 13 13 13 13 13 13 13 12 12
20 21 21 22 22 21 20 19 18 16 16 17 18 17 17 16 17 17 17 17 18 17 17 17 17 16 16 15 15 15 15 14 14 13 13 13 13 13 13 13 12 12 12 12
20 21 21 22 21 20 19 18 17 18 16 17 17 17 17 17 17 17 17 17 17 17 17 17 16 16 16 15 15 15 14 14 14 13 13 13 13 12 12 12 12 12 12 11
19 19 21 21 21 20 19 18 18 18 17 16 17 17 17 17 17 17 17 17 17 17 17 16 16 16 16 15 15 14 14 14 13 13 13 13 12 12 12 12 12 11 11 11
18 19 20 21 21 20 20 18 17 16 17 16 16 17 17 17 17 16 16 16 16 16 16 16 16 16 15 15 15 14 14 13 13 13 13 12 12 12 12 12 11 11 11 11
18 18 19 20 20 20 19 17 15 16 16 16 17 17 16 17 16 16 15 16 16 16 16 16 16 16 15 15 14 14 13 13 13 13 13 12 12 12 12 11 11 11 11 11
17 17 18 19 19 19 19 18 15 14 15 16 16 16 17 16 16 15 15 15 16 16 15 15 15 15 15 14 14 14 13 13 13 13 12 12 12 12 11 11 11 11 11 11
16 15 16 17 18 19 19 18 15 16 16 14 15 15 16 15 15 15 15 15 15 15 15 15 15 15 14 14 14 14 13 13 13 12 12 12 12 11 11 11 11 11 11 10
16 15 15 16 17 17 17 17 16 14 13 13 14 16 16 15 15 15 15 15 15 15 15 15 14 14 14 14 14 13 13 13 12 12 12 12 11 11 11 11 11 11 10 10
16 14 15 16 16 17 17 17 16 15 14 14 15 16 15 14 14 14 14 14 14 14 14 14 14 14 14 14 13 13 13 12 12 12 12 11 11 11 11 11 11 11 10 10
14 14 15 15 16 17 17 17 17 16 15 15 16 15 15 14 14 13 14 14 14 14 14 14 14 14 14 13 13 13 13 12 12 12 12 11 11 11 11 11 10 10 10 10
12 13 14 15 16 16 16 16 16 16 16 15 15 15 14 14 14 13 13 13 13 13 13 14 14 13 13 13 13 13 12 12 12 12 12 11 11 11 11 10 10 10 10 10
12 12 13 13 15 16 15 16 16 16 15 15 15 14 13 12 12 13 13 13 13 13 13 13 13 13 13 13 13 12 12 12 12 12 12 11 11 11 11 10 10 10 10 10
11 11 11 12 14 15 15 15 16 15 14 14 14 13 12 12 13 13 13 13 13 13 13 13 13 13 13 13 13 12 12 12 12 11 11 11 11 11 10 10 10 10 10 10
11 11 11 11 13 14 15 15 15 15 14 13 13 12 12 12 13 13 14 14 14 14 13 13 13 13 13 13 12 12 12 12 11 11 11 11 11 11 10 10 10 10 10 10
11 11 11 11 13 14 14 15 15 15 14 13 12 11 11 12 11 12 13 13 13 14 13 13 13 13 13 12 12 12 12 12 11 11 11 11 11 11 10 10 10 10 10 10
12 11 11 11 12 13 14 14 15 14 13 13 13 12 12 11 12 13 13 13 13 13 13 13 13 13 12 12 12 12 12 12 12 11 11 11 11 11 10 10 10 10 10 10
11 11 11 11 11 12 13 14 13 12 13 13 13 13 12 12 13 13 13 13 13 13 13 13 13 12 12 12 12 12 12 12 12 11 11 11 11 11 10 10 10 10 10 10
10 11 10 10 11 12 13 13 13 13 13 13 13 13 13 12 12 12 13 13 12 12 13 13 12 12 12 12 12 12 12 12 11 11 11 11 11 11 11 11 11 10 10 10
10 10 10 10 11 12 12 13 13 13 13 13 13 13 12 12 12 12 12 12 12 12 12 12 12 12 12 12 12 12 12 11 11 11 11 11 11 11 11 11 11 11 11 11
10 10 9 10 10 11 12 13 13 13 13 13 12 12 12 12 12 12 12 12 12 12 12 12 12 12 12 12 12 12 11 11 11 11 11 11 11 11 11 11 11 11 11 11
9 10 9 10 11 10 11 12 12 12 12 12 12 12 12 12 12 12 12 12 12 12 12 12 12 12 12 12 11 11 11 11 11 11 11 11 11 11 11 11 11 11 11 11
Wind_Speed
3 4 2 6 7 5 3 3 3 4 2 2 4 5 6 3 4 5 5 6 7 7 4 5 5 6 6 5 5 5 5 4 4 3 2 2 1 0 0 1 0 1 1 1
4 3 6 4 3 4 4 2 3 3 0 2 2 4 5 3 5 6 8 8 7 6 5 5 5 5 6 6 5 5 5 4 4 3 2 1 1 1 0 0 1 1 1 1
3 5 1 2 2 3 3 5 4 3 1 2 1 4 4 3 2 3 5 6 7 9 8 7 6 5 5 6 6 5 5 4 3 3 3 2 2 2 1 1 1 1 1 1
4 4 0 0 2 4 4 5 5 3 2 2 1 2 6 3 3 4 6 6 7 6 6 6 7 7 7 6 5 5 5 4 4 4 4 4 2 1 2 1 1 2 1 1
4 1 0 2 4 3 3 1 3 3 3 1 1 2 7 3 4 6 6 6 7 7 7 8 8 8 6 6 6 5 4 4 3 3 4 3 2 1 1 0 0 1 1 2
5 3 2 3 2 2 3 5 5 5 4 1 2 3 6 4 5 5 5 5 6 6 6 7 6 6 5 5 5 5 5 4 3 3 3 4 3 3 2 1 1 1 2 2
7 6 3 1 3 4 5 5 4 5 4 4 2 2 7 6 5 5 6 4 3 4 6 6 7 7 6 6 5 5 4 4 3 3 3 4 4 4 4 3 2 2 2 2
4 7 5 2 1 2 1 6 5 4 4 5 2 4 5 5 4 3 2 2 1 3 5 6 6 7 7 6 6 5 5 4 3 3 3 2 3 3 2 3 3 3 2 3
1 6 6 4 2 3 2 1 4 5 2 1 5 5 6 3 3 2 2 1 1 2 3 5 5 5 6 6 5 5 5 4 3 3 3 3 3 3 3 3 2 2 2 2
2 4 6 5 4 5 3 6 5 4 2 3 5 5 4 5 5 3 2 2 1 1 2 3 4 4 4 5 5 4 4 4 3 3 3 3 3 3 3 2 2 2 2 2
1 2 6 5 2 2 2 3 4 3 3 4 4 6 4 5 5 4 3 3 2 2 3 3 4 4 4 4 4 4 3 3 2 2 2 2 2 2 2 2 3 3 2 2
2 2 3 6 6 2 1 3 5 2 3 3 3 7 4 2 2 2 3 2 2 3 3 3 3 3 3 3 3 4 4 3 3 2 2 2 2 2 2 2 2 2 2 2
2 3 3 7 6 5 3 1 2 3 2 3 3 6 3 4 3 2 1 1 1 2 2 2 2 2 3 3 3 3 3 3 2 2 2 2 1 2 2 2 2 2 2 2
2 2 4 6 7 4 5 5 2 2 2 4 7 7 6 5 4 3 2 1 1 2 2 2 2 2 2 2 3 2 2 2 2 3 3 2 2 2 2 2 2 1 1 1
3 2 4 7 7 6 7 7 5 5 6 7 7 6 6 5 4 3 1 1 1 1 2 2 3 3 2 2 2 2 2 2 3 3 3 2 2 1 1 1 1 1 1 2
3 1 2 4 5 5 6 6 6 5 4 5 5 5 4 2 1 1 1 1 1 2 3 3 3 3 3 4 4 3 3 3 3 4 3 2 1 1 1 1 1 1 2 2
2 0 1 4 6 4 4 4 3 2 1 1 2 4 3 3 3 3 3 2 3 3 3 3 3 3 4 5 4 4 4 3 4 3 2 2 2 1 2 1 1 1 1 2
3 2 1 2 3 4 5 2 1 0 1 2 2 3 2 3 4 3 2 2 3 3 2 3 3 3 4 4 4 4 4 4 4 3 2 2 2 2 1 1 1 1 1 1
5 4 1 1 2 5 5 3 2 1 2 3 2 4 5 5 5 2 1 1 3 4 3 3 3 3 3 4 4 4 4 4 3 3 3 3 3 3 2 2 2 1 1 2
3 3 2 1 2 4 5 6 6 0 2 4 2 2 2 4 4 5 5 4 3 3 2 2 2 1 2 3 4 5 4 4 4 4 4 3 3 3 3 3 2 1 1 2
3 2 1 2 3 5 4 6 4 1 5 6 3 2 1 2 4 5 4 4 3 3 2 1 0 1 2 3 5 5 4 5 5 3 3 2 2 3 3 2 1 1 1 2
2 1 2 1 2 6 5 5 1 4 4 3 3 3 3 3 4 3 2 3 4 3 2 0 0 1 1 2 4 4 4 4 3 3 2 2 2 2 1 1 1 1 1 1
3 4 3 5 6 6 5 4 5 3 4 5 4 4 3 3 4 3 2 3 3 3 2 1 1 1 1 2 4 5 4 3 3 2 2 2 2 1 1 1 1 1 1 2
3 1 1 4 7 8 7 7 7 5 5 5 5 4 4 5 5 4 3 2 3 3 2 1 1 2 2 2 3 4 3 3 3 3 2 2 2 1 1 1 2 2 2 3
5 2 3 6 9 8 7 6 6 7 5 4 5 5 5 4 5 4 3 3 3 3 2 2 3 4 4 3 3 3 3 4 3 3 2 2 2 2 2 2 2 4 5 5
5 6 6 8 9 7 11 9 8 7 7 6 5 6 6 5 5 5 4 4 3 3 3 2 3 4 3 3 3 3 3 5 5 3 2 2 2 2 2 2 3 4 6 7
Wind_Direction
65 72 219 225 206 193 168 184 242 260 236 173 231 258 271 243 197 210 204 200 196 203 190 166 163 154 142 140 144 149 148 150 146 142 138 147 155 190 313 341 17 40 20 41
33 294 246 214 181 158 158 185 255 291 246 174 235 277 272 245 216 207 204 205 200 192 184 179 166 160 158 160 156 151 153 152 151 152 147 150 146 166 173 319 21 54 50 41
214 257 243 150 150 156 200 196 215 225 14 45 50 320 296 282 255 237 218 205 199 194 193 183 174 170 163 166 166 168 163 154 148 136 116 97 76 53 38 0 345 353 6 3
259 278 308 26 234 179 253 231 190 169 113 295 92 272 284 276 277 243 233 220 215 204 192 184 178 178 178 178 168 161 157 149 147 140 141 146 152 177 213 218 262 319 338 342
283 273 306 280 261 189 217 74 118 117 130 43 354 173 282 308 276 261 247 231 221 205 190 189 189 185 172 161 158 153 144 144 150 148 155 151 151 181 203 192 248 296 320 328
276 278 217 237 286 148 129 71 59 56 74 0 261 178 274 258 247 262 252 239 225 195 184 183 179 164 158 153 150 149 145 148 154 159 167 167 174 183 195 229 254 286 307 314
335 329 329 11 30 21 73 80 29 1 7 260 264 202 251 261 261 243 250 248 217 177 175 174 170 169 168 164 161 157 158 166 175 185 191 192 192 192 208 218 228 251 282 289
344 312 313 338 200 213 187 138 159 209 231 277 311 243 256 276 291 269 247 228 185 174 167 172 178 171 171 173 168 166 173 188 188 201 213 209 196 198 217 222 223 232 244 259
278 285 306 315 305 142 135 157 163 139 155 285 286 284 300 321 346 355 348 350 174 182 176 173 172 167 169 174 178 179 183 194 195 205 205 208 204 209 219 228 231 240 247 257
193 272 301 314 23 30 109 141 93 111 151 264 288 281 261 281 293 308 306 293 274 150 177 176 175 173 168 171 176 181 189 193 195 211 211 211 214 218 219 216 228 242 249 247
67 221 307 342 344 304 37 77 94 113 157 172 260 272 238 238 246 257 264 256 236 196 194 186 184 177 166 162 167 177 183 182 191 208 209 217 225 222 224 228 232 240 249 249
12 112 288 284 283 284 152 145 136 146 252 189 203 267 296 262 251 247 266 262 207 183 181 177 172 161 162 169 176 182 186 190 200 194 183 212 225 227 236 250 256 245 247 260
9 74 349 338 344 0 22 64 114 126 133 178 196 263 335 17 8 354 319 288 170 159 155 149 152 170 180 182 186 192 191 194 193 181 185 204 229 234 254 267 269 258 248 270
63 129 189 225 246 272 289 284 263 139 183 230 231 255 302 323 325 325 330 327 161 148 149 165 189 204 203 192 190 199 205 187 181 176 179 199 230 240 258 275 283 272 246 266
63 228 240 253 265 262 261 267 262 237 217 222 252 248 273 269 269 266 264 89 129 198 212 208 217 217 202 198 200 192 194 183 172 172 188 210 234 246 257 276 304 327 312 279
26 242 282 287 280 267 272 279 265 258 247 244 265 279 313 310 342 313 203 182 221 245 252 252 253 237 214 208 205 199 196 189 171 178 200 204 193 234 262 284 318 340 331 323
317 63 345 291 312 331 291 274 250 228 255 212 250 281 327 338 300 251 219 218 227 248 265 266 259 246 228 216 202 201 199 181 176 187 199 188 185 212 244 261 315 303 309 325
185 145 179 292 346 256 251 331 26 287 45 24 345 332 314 307 293 249 212 217 253 261 272 270 269 265 241 210 196 188 175 171 179 190 201 196 194 213 233 250 276 292 302 300
171 157 161 167 270 282 306 342 337 264 292 4 345 357 5 11 8 320 286 240 242 242 252 259 253 258 233 204 187 169 171 172 179 198 213 211 202 207 219 239 258 273 292 301
72 110 134 158 238 252 278 322 323 354 285 345 2 5 358 16 352 294 304 302 294 286 267 270 280 304 214 201 172 168 180 182 201 212 215 211 199 202 219 237 245 248 250 271
3 16 154 211 241 267 297 335 10 45 281 311 315 298 258 256 256 279 293 296 293 288 271 271 246 206 223 191 164 175 187 205 215 206 196 191 200 213 227 236 228 245 269 302
249 253 234 184 236 265 333 9 1 259 291 299 295 282 267 285 304 310 309 308 310 305 301 277 208 247 226 186 172 183 207 217 193 174 181 197 216 228 233 211 249 248 237 296
230 210 212 208 232 268 308 295 289 279 293 291 284 289 275 289 291 290 290 305 305 289 280 284 222 248 242 207 193 200 217 191 167 164 186 207 211 230 220 199 233 276 266 270
274 245 249 281 279 293 301 308 307 298 289 286 279 274 264 272 275 269 261 280 295 284 274 266 209 230 241 233 221 214 210 177 164 175 198 209 205 241 266 245 228 237 254 262
254 282 276 275 287 306 300 296 302 312 306 297 298 284 259 252 262 254 246 251 262 267 265 249 229 232 239 237 241 221 191 171 173 184 200 211 211 218 256 269 247 237 244 231
226 214 227 255 262 268 278 283 292 294 287 280 287 291 278 252 241 244 242 239 243 246 246 250 244 239 237 226 238 220 184 173 174 186 202 210 224 238 248 272 303 279 254 262
Height
1496 1501 1505 1502 1500 1501 1503 1507 1509 1505 1499 1502 1504 1502 1498 1496 1497 1498 1499 1500 1501 1503 1505 1507 1508 1510 1512 1513 1515 1516 1518 1519 1520 1522 1522 1523 1523 1524 1525 1525 1525 1525 1525 1525
1501 1503 1496 1495 1496 1499 1503 1508 1508 1504 1499 1502 1505 1503 1497 1496 1495 1495 1496 1497 1499 1501 1503 1505 1506 1508 1509 1510 1512 1514 1516 1517 1518 1520 1520 1521 1522 1522 1523 1523 1523 1523 1523 1522
1501 1497 1492 1494 1497 1500 1502 1505 1504 1504 1502 1502 1504 1506 1500 1496 1495 1494 1495 1495 1496 1498 1500 1501 1503 1505 1507 1508 1510 1512 1514 1515 1516 1517 1518 1519 1519 1520 1520 1520 1521 1521 1521 1520
1498 1493 1493 1494 1496 1496 1503 1495 1497 1500 1507 1513 1509 1520 1504 1498 1496 1494 1493 1493 1494 1496 1497 1499 1501 1503 1505 1506 1508 1510 1512 1513 1514 1515 1516 1516 1517 1517 1518 1518 1518 1518 1518 1518
1497 1493 1493 1495 1492 1492 1495 1493 1496 1500 1507 1514 1513 1519 1510 1499 1497 1493 1491 1490 1491 1493 1495 1496 1498 1500 1502 1504 1506 1508 1509 1511 1512 1513 1514 1514 1515 1516 1516 1516 1516 1516 1516 1516
1494 1490 1490 1490 1487 1488 1491 1496 1501 1508 1514 1523 1515 1519 1515 1503 1496 1491 1489 1488 1488 1491 1493 1494 1496 1498 1501 1502 1504 1505 1506 1508 1510 1511 1512 1512 1513 1513 1514 1514 1514 1514 1514 1514
1501 1493 1489 1488 1491 1491 1494 1507 1522 1523 1530 1526 1513 1515 1511 1494 1490 1489 1487 1487 1487 1489 1491 1492 1494 1496 1498 1500 1502 1503 1505 1505 1507 1509 1509 1510 1510 1511 1511 1512 1512 1512 1512 1512
1514 1510 1494 1490 1492 1496 1498 1504 1522 1530 1532 1525 1514 1514 1502 1489 1487 1486 1486 1486 1487 1487 1489 1491 1493 1495 1497 1498 1500 1501 1502 1504 1505 1506 1507 1508 1509 1509 1509 1510 1510 1510 1509 1509
1515 1510 1493 1489 1488 1490 1497 1504 1505 1518 1522 1527 1519 1508 1497 1488 1487 1486 1486 1486 1486 1487 1488 1490 1492 1493 1495 1497 1498 1500 1501 1502 1503 1504 1505 1506 1507 1507 1508 1508 1508 1507 1507 1506
1508 1511 1498 1492 1489 1490 1494 1501 1511 1519 1527 1531 1521 1512 1507 1494 1490 1488 1487 1486 1486 1487 1488 1489 1490 1492 1494 1496 1497 1498 1499 1500 1501 1503 1504 1504 1505 1505 1506 1505 1505 1504 1504 1503
1505 1512 1506 1499 1497 1498 1499 1503 1510 1519 1519 1527 1529 1517 1494 1491 1488 1488 1487 1486 1486 1487 1487 1488 1489 1491 1493 1494 1495 1497 1498 1499 1500 1501 1502 1503 1503 1503 1503 1503 1502 1502 1501 1501
1508 1514 1516 1506 1496 1493 1495 1500 1508 1517 1519 1521 1524 1515 1488 1488 1487 1487 1487 1486 1486 1486 1487 1488 1489 1490 1492 1493 1494 1495 1496 1497 1498 1499 1500 1501 1501 1501 1501 1500 1500 1500 1499 1499
1509 1516 1522 1515 1509 1500 1499 1500 1504 1511 1518 1522 1523 1510 1488 1487 1487 1487 1487 1486 1486 1486 1486 1487 1488 1490 1490 1492 1493 1494 1495 1496 1497 1498 1499 1499 1499 1499 1499 1498 1498 1498 1497 1497
1506 1515 1520 1522 1515 1506 1504 1501 1502 1508 1517 1516 1510 1501 1493 1490 1489 1488 1487 1487 1486 1486 1487 1487 1488 1489 1490 1491 1492 1493 1494 1495 1496 1497 1497 1498 1498 1498 1498 1497 1497 1496 1496 1496
1508 1514 1511 1508 1503 1502 1501 1499 1499 1502 1503 1507 1500 1497 1492 1491 1490 1489 1488 1487 1487 1487 1487 1487 1487 1488 1489 1490 1492 1493 1494 1494 1495 1496 1496 1496 1497 1496 1497 1497 1496 1496 1495 1495
1511 1513 1510 1508 1501 1500 1499 1496 1495 1495 1495 1496 1494 1494 1490 1489 1489 1488 1488 1488 1487 1487 1487 1488 1488 1488 1489 1489 1491 1492 1492 1493 1494 1494 1495 1495 1496 1496 1496 1496 1496 1495 1495 1494
1514 1515 1516 1514 1505 1501 1503 1496 1493 1493 1492 1494 1496 1495 1491 1490 1488 1487 1487 1487 1487 1487 1487 1487 1487 1488 1488 1489 1489 1490 1491 1492 1493 1493 1494 1494 1495 1495 1495 1495 1495 1494 1494 1494
1513 1516 1519 1518 1511 1513 1502 1491 1490 1492 1493 1493 1492 1491 1490 1489 1487 1486 1486 1486 1486 1486 1486 1486 1486 1487 1487 1488 1488 1489 1490 1491 1491 1492 1493 1493 1494 1495 1495 1495 1495 1494 1494 1493
1508 1513 1518 1521 1518 1509 1498 1492 1492 1493 1493 1492 1492 1491 1490 1488 1486 1486 1485 1486 1486 1485 1486 1486 1486 1485 1486 1486 1487 1487 1488 1489 1490 1491 1492 1493 1493 1494 1494 1494 1494 1494 1493 1493
1509 1511 1517 1519 1517 1514 1502 1492 1489 1490 1495 1491 1491 1491 1490 1489 1491 1487 1485 1485 1484 1484 1484 1484 1484 1484 1484 1484 1485 1486 1487 1488 1488 1490 1491 1492 1493 1493 1493 1494 1493 1493 1493 1492
1515 1515 1517 1517 1516 1507 1497 1492 1490 1500 1500 1492 1490 1490 1490 1490 1490 1487 1484 1484 1483 1483 1483 1483 1483 1483 1483 1483 1484 1485 1486 1486 1488 1489 1491 1491 1492 1493 1493 1493 1493 1493 1492 1492
1516 1517 1517 1517 1517 1510 1495 1493 1497 1497 1492 1490 1489 1488 1488 1487 1486 1484 1483 1482 1482 1482 1482 1482 1482 1482 1482 1483 1483 1483 1485 1486 1488 1489 1490 1491 1492 1492 1492 1492 1492 1492 1492 1491
1514 1513 1512 1512 1509 1499 1496 1495 1494 1492 1490 1489 1488 1487 1486 1485 1484 1483 1482 1482 1481 1481 1481 1481 1481 1481 1482 1482 1483 1483 1484 1486 1487 1488 1489 1490 1491 1491 1491 1491 1491 1491 1491 1490
1510 1508 1508 1506 1499 1497 1495 1493 1491 1490 1488 1487 1486 1485 1484 1483 1481 1481 1480 1480 1480 1480 1480 1480 1480 1480 1481 1482 1482 1483 1484 1485 1486 1487 1488 1489 1490 1490 1490 1490 1490 1490 1490 1489
1508 1507 1507 1504 1499 1494 1490 1490 1489 1487 1485 1484 1483 1482 1482 1481 1479 1479 1478 1478 1478 1478 1479 1479 1479 1480 1480 1481 1482 1482 1483 1484 1485 1486 1487 1488 1488 1489 1489 1489 1489 1489 1489 1488
1503 1504 1504 1500 1495 1495 1490 1488 1487 1485 1483 1481 1480 1479 1479 1478 1477 1477 1476 1476 1476 1476 1477 1478 1478 1478 1479 1479 1480 1481 1482 1483 1484 1485 1486 1487 1487 1487 1488 1488 1488 1488 1488 1487